Time,TemperatureF,DewpointF,PressureIn,WindDirection,WindDirectionDegrees,WindSpeedMPH,WindSpeedGustMPH,Humidity,HourlyPrecipIn,Conditions,Clouds,dailyrainin,SoftwareType,DateUTC
2013-01-11 00:03:00,68.0,67.0,30.05,South,170,6.0,12.0,97,-99.99,,,-99.99,,2013-01-11 06:03:00,
2013-01-11 00:12:00,68.0,67.0,30.05,South,170,6.0,12.0,97,-99.99,,,-99.99,,2013-01-11 06:12:00,
2013-01-11 00:22:00,67.0,66.0,30.05,South,184,3.0,9.0,98,-99.99,,,-99.99,,2013-01-11 06:22:00,
2013-01-11 00:32:00,67.0,66.0,30.05,South,175,4.0,10.0,98,-99.99,,,-99.99,,2013-01-11 06:32:00,
2013-01-11 00:42:00,67.0,66.0,30.05,South,175,4.0,10.0,98,-99.99,,,-99.99,,2013-01-11 06:42:00,
2013-01-11 00:52:00,67.0,66.0,30.04,SSW,206,4.0,8.0,98,-99.99,,,-99.99,,2013-01-11 06:52:00,
2013-01-11 01:02:00,67.0,66.0,30.05,South,182,5.0,8.0,98,-99.99,,,-99.99,,2013-01-11 07:02:00,
2013-01-11 01:12:00,67.0,67.0,30.05,South,188,4.0,8.0,99,-99.99,,,-99.99,,2013-01-11 07:12:00,
2013-01-11 01:22:00,67.0,67.0,30.05,South,188,4.0,8.0,99,-99.99,,,-99.99,,2013-01-11 07:22:00,
2013-01-11 01:32:00,67.0,67.0,30.06,South,174,2.0,8.0,99,-99.99,,,-99.99,,2013-01-11 07:32:00,
2013-01-11 01:42:00,67.0,67.0,30.06,SSW,206,3.0,7.0,99,-99.99,,,-99.99,,2013-01-11 07:42:00,
2013-01-11 01:52:00,67.0,67.0,30.06,SSW,206,3.0,7.0,99,-99.99,,,-99.99,,2013-01-11 07:52:00,
2013-01-11 02:02:00,67.0,67.0,30.06,SSW,196,3.0,7.0,99,-99.99,,,-99.99,,2013-01-11 08:02:00,
2013-01-11 02:12:00,67.0,67.0,30.06,SW,217,3.0,7.0,99,-99.99,,,-99.99,,2013-01-11 08:12:00,
2013-01-11 02:22:00,67.0,67.0,30.06,SW,217,3.0,7.0,99,-99.99,,,-99.99,,2013-01-11 08:22:00,
2013-01-11 02:32:00,67.0,67.0,30.06,SW,225,1.0,7.0,99,-99.99,,,-99.99,,2013-01-11 08:32:00,
2013-01-11 02:42:00,67.0,67.0,30.06,SW,225,1.0,7.0,99,-99.99,,,-99.99,,2013-01-11 08:42:00,
2013-01-11 02:52:00,67.0,67.0,30.06,SW,222,1.0,6.0,100,-99.99,,,-99.99,,2013-01-11 08:52:00,
2013-01-11 03:02:00,67.0,67.0,30.07,SW,225,3.0,6.0,100,-99.99,,,-99.99,,2013-01-11 09:02:00,
2013-01-11 03:12:00,67.0,67.0,30.07,SW,225,3.0,6.0,100,-99.99,,,-99.99,,2013-01-11 09:12:00,
2013-01-11 03:22:00,66.0,66.0,30.06,SW,222,3.0,9.0,99,-99.99,,,-99.99,,2013-01-11 09:22:00,
2013-01-11 03:32:00,66.0,66.0,30.06,SW,223,1.0,5.0,99,-99.99,,,-99.99,,2013-01-11 09:32:00,
2013-01-11 03:42:00,66.0,66.0,30.06,SW,223,1.0,5.0,99,-99.99,,,-99.99,,2013-01-11 09:42:00,
2013-01-11 03:52:00,66.0,66.0,30.05,SW,229,3.0,8.0,99,-99.99,,,-99.99,,2013-01-11 09:52:00,
2013-01-11 04:02:00,65.0,65.0,30.05,West,261,3.0,6.0,99,-99.99,,,-99.99,,2013-01-11 10:02:00,
2013-01-11 04:12:00,65.0,65.0,30.05,West,261,3.0,6.0,99,-99.99,,,-99.99,,2013-01-11 10:12:00,
2013-01-11 04:22:00,65.0,65.0,30.05,West,261,1.0,5.0,99,-99.99,,,-99.99,,2013-01-11 10:22:00,
2013-01-11 04:32:00,65.0,65.0,30.05,NW,309,2.0,7.0,99,-99.99,,,-99.99,,2013-01-11 10:32:00,
2013-01-11 04:42:00,65.0,65.0,30.05,NW,309,2.0,7.0,99,-99.99,,,-99.99,,2013-01-11 10:42:00,
2013-01-11 04:52:00,64.0,64.0,30.05,NW,309,1.0,4.0,99,-99.99,,,-99.99,,2013-01-11 10:52:00,
2013-01-11 05:02:00,64.0,64.0,30.04,NW,309,0.0,2.0,99,-99.99,,,-99.99,,2013-01-11 11:02:00,
2013-01-11 05:12:00,64.0,64.0,30.04,NW,309,0.0,2.0,99,-99.99,,,-99.99,,2013-01-11 11:12:00,
2013-01-11 05:22:00,64.0,64.0,30.04,NW,309,1.0,3.0,99,-99.99,,,-99.99,,2013-01-11 11:22:00,
2013-01-11 05:32:00,64.0,64.0,30.05,NW,309,0.0,4.0,99,-99.99,,,-99.99,,2013-01-11 11:32:00,
2013-01-11 05:42:00,64.0,64.0,30.05,NW,309,0.0,4.0,99,-99.99,,,-99.99,,2013-01-11 11:42:00,
2013-01-11 05:53:00,64.0,64.0,30.05,NW,309,0.0,1.0,99,-99.99,,,-99.99,,2013-01-11 11:53:00,
2013-01-11 06:03:00,64.0,64.0,30.05,NW,309,0.0,0.0,99,-99.99,,,-99.99,,2013-01-11 12:03:00,
2013-01-11 06:12:00,64.0,64.0,30.05,NW,309,0.0,0.0,99,-99.99,,,-99.99,,2013-01-11 12:12:00,
2013-01-11 06:22:00,64.0,64.0,30.05,NW,309,0.0,1.0,99,-99.99,,,-99.99,,2013-01-11 12:22:00,
2013-01-11 06:32:00,63.0,63.0,30.06,NW,309,0.0,1.0,99,-99.99,,,-99.99,,2013-01-11 12:32:00,
2013-01-11 06:42:00,63.0,63.0,30.06,NW,309,0.0,1.0,99,-99.99,,,-99.99,,2013-01-11 12:42:00,
2013-01-11 06:53:00,63.0,63.0,30.06,NW,309,0.0,0.0,100,-99.99,,,-99.99,,2013-01-11 12:53:00,
2013-01-11 07:02:00,63.0,63.0,30.06,NW,309,0.0,0.0,100,-99.99,,,-99.99,,2013-01-11 13:02:00,
2013-01-11 07:12:00,63.0,63.0,30.06,NW,309,0.0,0.0,100,-99.99,,,-99.99,,2013-01-11 13:12:00,
2013-01-11 07:22:00,63.0,63.0,30.06,NW,309,0.0,2.0,100,-99.99,,,-99.99,,2013-01-11 13:22:00,
2013-01-11 07:33:00,63.0,63.0,30.07,NW,309,0.0,2.0,100,-99.99,,,-99.99,,2013-01-11 13:33:00,
2013-01-11 07:42:00,63.0,63.0,30.07,NW,309,0.0,2.0,100,-99.99,,,-99.99,,2013-01-11 13:42:00,
2013-01-11 07:53:00,63.0,63.0,30.08,NW,309,0.0,0.0,100,-99.99,,,-99.99,,2013-01-11 13:53:00,
2013-01-11 08:03:00,63.0,63.0,30.08,NW,309,0.0,2.0,100,-99.99,,,-99.99,,2013-01-11 14:03:00,
2013-01-11 08:12:00,63.0,63.0,30.08,NW,309,0.0,2.0,100,-99.99,,,-99.99,,2013-01-11 14:12:00,
2013-01-11 08:22:00,63.0,63.0,30.08,NW,309,0.0,2.0,100,-99.99,,,-99.99,,2013-01-11 14:22:00,
2013-01-11 08:33:00,63.0,63.0,30.08,NW,309,0.0,2.0,100,-99.99,,,-99.99,,2013-01-11 14:33:00,
2013-01-11 08:42:00,63.0,63.0,30.09,NW,309,0.0,2.0,100,-99.99,,,-99.99,,2013-01-11 14:42:00,
2013-01-11 08:53:00,63.0,63.0,30.09,NW,309,0.0,2.0,100,-99.99,,,-99.99,,2013-01-11 14:53:00,
2013-01-11 09:03:00,63.0,63.0,30.09,NW,309,0.0,2.0,100,-99.99,,,-99.99,,2013-01-11 15:03:00,
2013-01-11 09:12:00,63.0,63.0,30.09,NW,309,0.0,2.0,100,-99.99,,,-99.99,,2013-01-11 15:12:00,
2013-01-11 09:23:00,63.0,63.0,30.09,NW,309,0.0,2.0,100,-99.99,,,-99.99,,2013-01-11 15:23:00,
2013-01-11 09:32:00,63.0,63.0,30.09,NW,309,0.0,2.0,100,-99.99,,,-99.99,,2013-01-11 15:32:00,
2013-01-11 09:42:00,63.0,63.0,30.09,NW,309,0.0,2.0,100,-99.99,,,-99.99,,2013-01-11 15:42:00,
2013-01-11 09:52:00,63.0,63.0,30.09,NW,309,0.0,2.0,100,-99.99,,,-99.99,,2013-01-11 15:52:00,